Location: Grand Mazuras
(45.9128°N, 1.7636°E)
Time: 09:42:59
(UTC+00:00)

N. Korean satellite - Pass Details

Date: 05 October 2021
Orbit: 450 x 495 km, 97.3° (Epoch: 15 October)

Event Time Altitude Azimuth Distance (km) Brightness Sun altitude
Rises 05:05:11 0° 14° (NNE) 2,561 10.5 -9.8°
Reaches altitude 10° 05:07:16 10° 17° (NNE) 1,682 9.6 -9.4°
Maximum altitude 05:10:52 68° 101° (E) 533 7.0 -8.8°
Drops below altitude 10° 05:14:29 10° 185° (S) 1,685 9.2 -8.1°
Sets 05:16:34 0° 188° (S) 2,566 10.1 -7.8°
